Location: Brompton
(51.4000°N, 0.5333°E)
Time: 16:43:32
(UTC+00:00)

Cosmos 1536 - Pass Details

Date: 02 October 2021
Orbit: 539 x 557 km, 82.5° (Epoch: 28 October)

Event Time Altitude Azimuth Distance (km) Brightness Sun altitude
Rises 01:49:06 0° 3° (N) 2,713 7.0 -35.9°
Reaches altitude 10° 01:52:07 10° 27° (NNE) 1,814 6.2 -35.6°
Enters shadow 01:53:20 14° 45° (NE) 1,595 5.9 -35.5°
